Weather Roundup
Issued by NWS Chicago, IL

Home | Current Version | Previous Version | Text Only | Print | Product List | Glossary Off
Versions: 1 2 3 4 5 6 7 8 9 10 11 12 13 14 15 16 17 18 19 20 21 22 23 24 25 26 27 28 29 30 31 32 33 34 35 36 37 38 39 40 41 42 43 44 45 46 47 48 49 50

000
NZUS59 KLOT 301700
HRRLOT

CHICAGO AREA WEATHER ROUNDUP
NATIONAL WEATHER SERVICE CHICAGO/ROMEOVILLE IL
1200 PM CDT THU JUL 30 2015

NOTE: "FAIR" INDICATES FEW OR NO CLOUDS BELOW 12,000 FEET WITH NO
SIGNIFICANT WEATHER AND/OR OBSTRUCTIONS TO VISIBILITY.

* THESE STATIONS ARE NOT UNDER NWS QUALITY CONTROL. THEY ALSO MAY NOT
  REPORT WEATHER SUCH AS PRECIPITATION OR FOG.

ILZ005-006-012>014-019>023-301800-
NORTHEAST ILLINOIS

CITY           SKY/WX    TMP DP  RH WIND       PRES   REMARKS
OHARE          MOSUNNY   85  53  33 NW21      30.06S HX  83
MIDWAY         SUNNY     87  52  29 NW15      30.06F HX  85
AURORA         SUNNY     83  60  45 NW10      30.09S HX  83
WAUKEGAN       NOT AVBL
DUPAGE AIRPORT SUNNY     84  55  36 NW15      30.08S HX  83
WHEELING       SUNNY     85  53  33 W15G23    30.07S HX  83
NORTHERLY IS     N/A     83  50  31 W9          N/A  HX  81
$$

WIZ051-052-058>065-066-070>072-301800-
SOUTHEAST WISCONSIN

CITY           SKY/WX    TMP DP  RH WIND       PRES   REMARKS
MILWAUKEE      MOSUNNY   85  52  32 W17G26    30.03R HX  83
KENOSHA*       SUNNY     82  60  47 W10       30.05S HX  82
RACINE*        SUNNY     84  56  38 W13G22    30.05S HX  83
WAUKESHA       SUNNY     81  55  41 W14G21    30.05S HX  80
$$

INZ001>003-010>013-019-020-301800-
NORTHWEST INDIANA

CITY           SKY/WX    TMP DP  RH WIND       PRES   REMARKS
GARY*          SUNNY     84  55  37 W22       30.07S HX  83
MICHIGAN CITY* NOT AVBL
RENSSELAER*    NOT AVBL
$$

LMZ740>746-301800-
SOUTHERN LAKE MICHIGAN

STATION/POSITION TIME  SKY/WX   TEMP WIND        PRES    VSBY
                                AIR  DIR/SP/G
                 (UTC)          (F)  (DEG/KT/KT) (MB)    (MI)
HARRISON CRIB    1600            79  310/ 13/ 17   N/A
BURNHAM HARBOR   1600            81  320/ 12/ 13   N/A
CALUMET HARBOR   1600            82  300/  7/ 12   N/A
BURNS HARBOR     1600            75  280/  7/  9 1018.6R
MICHIGAN CITY    1600            73  240/ 10/ 12   N/A
$$

ABBREVIATIONS USED IN REMARKS
   TC - TEMPERATURE IN CELSIUS
  WCI - WIND CHILL INDEX
   HX - HEAT INDEX
  VSB - VISIBILITY
$$



USA.gov is the U.S. government's official web portal to all federal, state and local government web resources and services.